Location: Unspecified
(0.0000°N, 0.0000°E)
Time: 09:49:34
(UTC+00:00)

MANDRAKE 2 BAKER - Pass Details

Date: 19 February 2026
Orbit: 402 x 407 km, 97.7° (Epoch: 7 March)

Event Time Altitude Azimuth Distance (km) Brightness Sun altitude
Rises 04:45:31 0° 133° (SE) 2,328 ? -21.6°
Reaches altitude 10° 04:48:57 10° 92° (E) 1,460 ? -20.8°
Maximum altitude 04:49:38 11° 79° (ENE) 1,426 ? -20.6°
Drops below altitude 10° 04:50:20 10° 66° (ENE) 1,456 ? -20.5°
Sets 04:53:44 0° 24° (NNE) 2,307 ? -19.6°
